• In Deutschland
  • Länderverzeichnis
  • Für 7 Tage
  • Wassertemperatur
  • Satellitenkarten
  • Wetterkarte
  • Widgets
  • user-avatar
    Anmelden

    Stündliche Wetter Schönebeck

    Heute, 20 Oktober, Freitag

    Zeit Temperatur Niederschläge Wind Luftdruck Luftfeuchtigkeit
    00:00 +14°C° 0 mm 2 m/S 755 mmHg 78%
    01:00 +13°C° 0 mm 2 m/S 755 mmHg 82%
    02:00 +13°C° 0 mm 2 m/S 755 mmHg 83%
    03:00 +13°C° 0 mm 2 m/S 754 mmHg 83%
    04:00 +13°C° 0 mm 2 m/S 754 mmHg 83%
    05:00 +13°C° 0 mm 2 m/S 754 mmHg 82%
    06:00 +13°C° 0 mm 2 m/S 754 mmHg 81%
    07:00 +13°C° 0 mm 2 m/S 754 mmHg 80%
    08:00 +14°C° 0 mm 2 m/S 754 mmHg 74%
    09:00 +16°C° 0 mm 3 m/S 754 mmHg 68%
    10:00 +18°C° 0 mm 3 m/S 754 mmHg 62%
    11:00 +18°C° 0 mm 3 m/S 754 mmHg 62%
    12:00 +18°C° 0 mm 3 m/S 754 mmHg 62%
    13:00 +19°C° 0 mm 3 m/S 754 mmHg 62%
    14:00 +18°C° 0,2 mm 3 m/S 754 mmHg 66%
    15:00 +17°C° 0,2 mm 3 m/S 754 mmHg 71%
    16:00 +17°C° 0,2 mm 3 m/S 754 mmHg 76%
    17:00 +16°C° 0,2 mm 3 m/S 754 mmHg 79%
    18:00 +14°C° 0,2 mm 3 m/S 754 mmHg 82%
    19:00 +13°C° 0,2 mm 3 m/S 755 mmHg 85%
    20:00 +13°C° 0 mm 3 m/S 755 mmHg 85%
    21:00 +12°C° 0 mm 3 m/S 755 mmHg 85%
    22:00 +11°C° 0 mm 3 m/S 756 mmHg 85%
    23:00 +11°C° 0 mm 3 m/S 756 mmHg 85%

    Morgen, 21 Oktober, Samstag

    Zeit Temperatur Niederschläge Wind Luftdruck Luftfeuchtigkeit
    00:00 +10°C° 0 mm 3 m/S 756 mmHg 85%
    01:00 +10°C° 0 mm 3 m/S 756 mmHg 85%
    02:00 +10°C° 0 mm 3 m/S 756 mmHg 85%
    03:00 +9°C° 0 mm 3 m/S 756 mmHg 86%
    04:00 +9°C° 0 mm 3 m/S 756 mmHg 87%
    05:00 +9°C° 0 mm 3 m/S 756 mmHg 87%
    06:00 +9°C° 0 mm 3 m/S 756 mmHg 87%
    07:00 +9°C° 0 mm 3 m/S 756 mmHg 87%
    08:00 +10°C° 0 mm 2 m/S 756 mmHg 83%
    09:00 +12°C° 0 mm 2 m/S 756 mmHg 79%
    10:00 +13°C° 0 mm 2 m/S 756 mmHg 75%
    11:00 +15°C° 0 mm 2 m/S 756 mmHg 71%
    12:00 +16°C° 0 mm 3 m/S 755 mmHg 66%
    13:00 +18°C° 0 mm 3 m/S 755 mmHg 62%
    14:00 +18°C° 0,1 mm 3 m/S 755 mmHg 66%
    15:00 +18°C° 0,1 mm 2 m/S 755 mmHg 70%
    16:00 +17°C° 0,1 mm 2 m/S 754 mmHg 74%
    17:00 +17°C° 0,9 mm 2 m/S 754 mmHg 79%
    18:00 +16°C° 0,9 mm 2 m/S 755 mmHg 85%
    19:00 +15°C° 0,9 mm 2 m/S 755 mmHg 91%
    20:00 +15°C° 0,1 mm 2 m/S 755 mmHg 91%
    21:00 +14°C° 0,1 mm 3 m/S 755 mmHg 91%
    22:00 +13°C° 0,1 mm 3 m/S 755 mmHg 91%
    23:00 +13°C° 0,4 mm 3 m/S 755 mmHg 90%

    übermorgen, 22 Oktober, Sonntag

    Zeit Temperatur Niederschläge Wind Luftdruck Luftfeuchtigkeit
    00:00 +12°C° 0,4 mm 3 m/S 755 mmHg 89%
    01:00 +12°C° 0,4 mm 4 m/S 756 mmHg 88%
    02:00 +11°C° 0 mm 4 m/S 756 mmHg 88%
    03:00 +11°C° 0 mm 4 m/S 755 mmHg 88%
    04:00 +10°C° 0 mm 4 m/S 755 mmHg 88%
    05:00 +10°C° 0 mm 4 m/S 755 mmHg 88%
    06:00 +10°C° 0 mm 4 m/S 755 mmHg 88%
    07:00 +8°C° 0 mm 4 m/S 755 mmHg 88%
    08:00 +9°C° 0 mm 5 m/S 755 mmHg 82%
    09:00 +10°C° 0 mm 5 m/S 755 mmHg 77%
    10:00 +11°C° 0 mm 6 m/S 755 mmHg 72%
    11:00 +11°C° 0 mm 6 m/S 755 mmHg 69%
    12:00 +11°C° 0 mm 6 m/S 755 mmHg 66%
    13:00 +13°C° 0 mm 5 m/S 755 mmHg 64%
    14:00 +12°C° 0,2 mm 5 m/S 755 mmHg 66%
    15:00 +12°C° 0,2 mm 5 m/S 755 mmHg 68%
    16:00 +12°C° 0,2 mm 4 m/S 755 mmHg 70%
    17:00 +11°C° 0 mm 4 m/S 755 mmHg 74%
    18:00 +10°C° 0 mm 4 m/S 755 mmHg 77%
    19:00 +9°C° 0 mm 3 m/S 755 mmHg 81%
    20:00 +9°C° 0 mm 3 m/S 755 mmHg 82%
    21:00 +7°C° 0 mm 4 m/S 755 mmHg 83%
    22:00 +7°C° 0 mm 4 m/S 755 mmHg 84%
    23:00 +7°C° 0 mm 4 m/S 755 mmHg 85%

    23 Oktober, Montag

    Zeit Temperatur Niederschläge Wind Luftdruck Luftfeuchtigkeit
    00:00 +7°C° 0 mm 4 m/S 755 mmHg 86%
    01:00 +8°C° 0 mm 3 m/S 755 mmHg 88%
    02:00 +7°C° 0 mm 3 m/S 755 mmHg 89%
    03:00 +7°C° 0 mm 3 m/S 755 mmHg 90%
    04:00 +7°C° 0 mm 3 m/S 755 mmHg 92%
    05:00 +5°C° 0 mm 3 m/S 755 mmHg 92%
    06:00 +5°C° 0 mm 3 m/S 755 mmHg 92%
    07:00 +5°C° 0 mm 3 m/S 755 mmHg 93%
    08:00 +7°C° 0 mm 3 m/S 755 mmHg 87%
    09:00 +9°C° 0 mm 3 m/S 755 mmHg 82%
    10:00 +10°C° 0 mm 3 m/S 755 mmHg 77%
    11:00 +11°C° 0,1 mm 3 m/S 755 mmHg 76%
    12:00 +11°C° 0,1 mm 3 m/S 755 mmHg 75%
    13:00 +12°C° 0,1 mm 3 m/S 755 mmHg 74%
    14:00 +13°C° 0,1 mm 2 m/S 755 mmHg 76%
    15:00 +13°C° 0,1 mm 2 m/S 755 mmHg 78%
    16:00 +13°C° 0,1 mm 2 m/S 756 mmHg 80%
    17:00 +12°C° 0,2 mm 2 m/S 756 mmHg 83%
    18:00 +11°C° 0,2 mm 1 m/S 757 mmHg 86%
    19:00 +11°C° 0,2 mm 1 m/S 757 mmHg 90%
    20:00 +10°C° 0,1 mm 1 m/S 757 mmHg 90%
    21:00 +10°C° 0,1 mm 1 m/S 758 mmHg 91%
    22:00 +10°C° 0,1 mm 1 m/S 758 mmHg 92%
    23:00 +10°C° 0 mm 1 m/S 759 mmHg 92%

    24 Oktober, Dienstag

    Zeit Temperatur Niederschläge Wind Luftdruck Luftfeuchtigkeit
    00:00 +9°C° 0 mm 1 m/S 759 mmHg 93%
    01:00 +9°C° 0 mm 1 m/S 760 mmHg 93%
    02:00 +9°C° 0 mm 1 m/S 760 mmHg 93%
    03:00 +8°C° 0 mm 0 m/S 760 mmHg 93%
    04:00 +8°C° 0 mm 0 m/S 761 mmHg 94%
    05:00 +8°C° 0 mm 0 m/S 761 mmHg 93%
    06:00 +8°C° 0 mm 0 m/S 762 mmHg 93%
    07:00 +9°C° 0 mm 1 m/S 762 mmHg 93%
    08:00 +10°C° 0 mm 1 m/S 763 mmHg 89%
    09:00 +11°C° 0 mm 1 m/S 763 mmHg 85%
    10:00 +12°C° 0 mm 1 m/S 763 mmHg 80%
    11:00 +13°C° 0 mm 2 m/S 763 mmHg 76%
    12:00 +14°C° 0 mm 2 m/S 763 mmHg 72%
    13:00 +15°C° 0 mm 2 m/S 763 mmHg 68%
    14:00 +14°C° 0 mm 2 m/S 763 mmHg 70%
    15:00 +14°C° 0 mm 2 m/S 763 mmHg 73%
    16:00 +14°C° 0 mm 2 m/S 763 mmHg 75%
    17:00 +13°C° 0 mm 2 m/S 763 mmHg 79%
    18:00 +12°C° 0 mm 2 m/S 764 mmHg 84%
    19:00 +10°C° 0 mm 3 m/S 764 mmHg 88%
    20:00 +9°C° 0 mm 3 m/S 764 mmHg 89%
    21:00 +9°C° 0 mm 3 m/S 764 mmHg 91%
    22:00 +9°C° 0 mm 3 m/S 764 mmHg 92%
    23:00 +9°C° 0 mm 3 m/S 764 mmHg 92%

    25 Oktober, Mittwoch

    Zeit Temperatur Niederschläge Wind Luftdruck Luftfeuchtigkeit
    00:00 +8°C° 0 mm 3 m/S 764 mmHg 92%
    01:00 +8°C° 0 mm 3 m/S 764 mmHg 92%
    02:00 +8°C° 0 mm 3 m/S 764 mmHg 92%
    03:00 +8°C° 0 mm 3 m/S 764 mmHg 92%
    04:00 +8°C° 0 mm 3 m/S 764 mmHg 92%
    05:00 +9°C° 0 mm 3 m/S 764 mmHg 93%
    06:00 +9°C° 0 mm 3 m/S 764 mmHg 93%
    07:00 +9°C° 0 mm 3 m/S 764 mmHg 93%
    08:00 +10°C° 0 mm 3 m/S 764 mmHg 88%
    09:00 +12°C° 0 mm 3 m/S 764 mmHg 83%
    10:00 +13°C° 0 mm 3 m/S 765 mmHg 78%
    11:00 +16°C° 0 mm 2 m/S 764 mmHg 74%
    12:00 +17°C° 0 mm 2 m/S 764 mmHg 71%
    13:00 +18°C° 0 mm 2 m/S 764 mmHg 67%
    14:00 +18°C° 0 mm 2 m/S 764 mmHg 70%
    15:00 +17°C° 0 mm 2 m/S 764 mmHg 72%
    16:00 +17°C° 0 mm 2 m/S 764 mmHg 75%
    17:00 +16°C° 0 mm 2 m/S 764 mmHg 79%
    18:00 +15°C° 0 mm 2 m/S 764 mmHg 82%
    19:00 +14°C° 0 mm 2 m/S 765 mmHg 86%
    20:00 +13°C° 0 mm 2 m/S 765 mmHg 87%
    21:00 +13°C° 0 mm 2 m/S 765 mmHg 87%
    22:00 +13°C° 0 mm 1 m/S 765 mmHg 88%
    23:00 +12°C° 0 mm 2 m/S 765 mmHg 88%
    Mehr zeigen